User: anonymous   Login
Location: Unspecified
(0.0000°N, 0.0000°E)
Time: 23:19:28
(UTC+00:00)
Language:

ONEWEB-0232 - Orbit

View from above orbital plane
View from above orbital plane
View from above satellite
View from above satellite

Ground track
Ground track

The orbit is defined by the following mean orbital elements,

1 48781U          26145.55671015 +.00000000 +00000-0 +34977-3 0 00002
2 48781  87.9007 263.6910 0001844 102.1697 257.9640 13.15549362    03
Epoch (UTC): 25 May 2026 13:21:39
Eccentricity: 0.0001844
inclination: 87.9007°
perigee height: 1200 km
apogee height: 1203 km
right ascension of ascending node: 263.6910°
argument of perigee: 102.1697°
revolutions per day: 13.15549362
mean anomaly at epoch: 257.9640°

The dashed part of the orbit path shows where the satellite is in the earth's shadow,  

DLR